Location: Unspecified
(0.0000°N, 0.0000°E)
Time: 04:39:25
(UTC+00:00)

A-11 Canister half - Pass Details

Date: 21 April 2026
Orbit: 1523 x 1685 km, 47.3° (Epoch: 13 May)

Event Time Altitude Azimuth Distance (km) Brightness Sun altitude
Rises 19:57:50 0° 216° (SW) 4,718 11.8 -29.1°
Reaches altitude 10° 20:00:52 10° 214° (SW) 3,750 11.2 -29.8°
Maximum altitude 20:10:24 77° 129° (SE) 1,636 8.8 -32.1°
Enters shadow 20:12:10 63° 67° (ENE) 1,759 8.9 -32.5°
Drops below altitude 10° 20:20:16 10° 44° (NE) 3,871 - -34.5°
Sets 20:23:26 0° 43° (NE) 4,875 - -35.3°
